Theta_e
294 293 293 293 293 293 293 293 293 293 293 293 293 293 292 292 291 291 291 291 290 290 290 290 290 290 289 289 289 289 289 289 288 288 288 288 288 288 287 287 287 287
293 293 293 293 293 292 292 292 292 292 292 292 292 291 291 291 291 290 290 290 290 290 290 290 289 289 289 289 289 289 289 289 288 288 288 288 288 288 288 287 287 287
293 292 292 292 292 292 292 292 292 291 291 291 290 290 290 290 290 289 289 289 289 289 289 289 289 289 288 288 288 288 288 288 288 288 288 288 288 288 288 288 288 288
292 292 292 292 292 291 291 290 290 290 289 289 289 289 289 289 289 288 288 288 288 288 288 288 288 288 288 288 288 288 288 288 288 288 288 288 288 287 288 287 287 287
292 292 291 291 291 290 289 289 289 289 289 289 289 288 288 288 288 288 288 288 288 288 288 288 288 288 288 288 288 287 287 287 287 287 287 287 287 287 287 287 287 287
291 291 290 290 289 289 289 288 288 288 288 288 288 288 288 288 288 288 288 288 288 288 288 288 288 287 287 287 287 287 287 287 287 287 287 287 287 287 287 287 287 287
291 290 290 289 289 288 288 288 288 288 288 288 288 288 288 288 288 288 288 288 288 288 288 287 287 287 287 287 287 287 286 286 286 286 286 286 286 286 286 286 286 286
290 289 289 288 288 288 288 288 288 288 288 288 288 288 288 288 288 288 288 288 288 288 287 287 287 287 287 286 286 286 286 286 286 286 286 286 286 286 286 286 286 286
289 289 289 288 288 288 288 288 288 288 288 288 288 288 288 288 288 288 288 288 287 287 287 287 287 286 286 286 286 285 286 286 286 286 286 286 286 286 286 286 285 286
289 289 288 288 288 288 288 287 287 287 287 287 288 288 288 288 288 288 287 287 287 287 286 286 286 285 285 285 285 285 285 285 285 285 285 285 285 285 285 285 285 285
289 289 288 288 288 287 287 287 287 287 287 287 287 287 287 287 287 287 287 287 286 286 285 285 285 285 285 285 285 285 285 285 285 285 285 285 285 285 285 285 285 285
289 288 288 288 288 287 287 287 287 287 287 287 287 287 287 287 287 287 286 286 285 285 285 285 285 285 285 285 285 285 285 285 285 284 284 284 284 284 285 285 284 284
289 288 288 288 287 287 287 287 287 287 287 287 287 287 287 287 286 286 285 285 284 284 284 284 284 284 284 284 284 284 284 284 284 284 284 284 284 284 284 284 284 284
289 289 288 288 287 287 287 287 287 287 287 287 287 287 287 286 285 285 284 284 284 284 284 284 284 284 284 284 284 284 284 284 284 284 284 284 284 284 284 284 284 283
289 289 288 288 287 287 287 287 287 287 287 287 287 286 285 285 284 284 284 284 284 284 284 284 284 284 283 283 283 283 283 283 283 284 284 284 284 284 283 283 282 282
290 289 288 288 287 287 287 286 286 286 286 286 286 285 284 284 284 284 284 284 284 284 284 284 284 283 283 283 283 283 283 283 283 283 283 283 283 282 282 281 281 280
290 289 288 287 287 287 286 286 286 286 286 286 285 284 284 284 284 284 284 284 284 284 284 283 283 283 283 283 282 282 282 282 282 282 282 282 281 281 280 280 279 279
289 289 288 287 287 286 286 286 286 286 286 285 284 283 283 284 284 284 283 283 283 283 283 283 283 282 282 282 282 282 282 281 281 281 281 281 280 279 278 278 278 277
289 288 287 287 287 286 286 286 286 285 285 284 283 283 283 283 283 283 283 283 283 283 283 283 282 282 282 282 281 281 281 280 280 280 279 279 278 277 277 277 276 276
289 288 287 287 286 286 286 285 285 285 283 283 283 283 283 283 283 283 283 283 283 283 283 282 282 282 282 281 281 281 280 280 279 279 278 277 277 276 276 276 275 275
288 287 287 286 286 286 285 285 285 284 283 283 283 283 283 283 283 283 283 283 282 282 282 282 282 281 281 281 280 280 280 279 278 277 277 276 276 275 275 275 275 274
287 287 287 286 286 285 285 285 284 283 282 282 283 283 283 283 283 283 283 282 282 282 282 282 281 280 280 280 280 280 279 278 277 276 276 275 275 275 274 274 273 272
287 287 286 286 286 285 285 285 284 282 282 282 282 283 283 283 283 282 282 282 282 281 281 281 281 280 280 280 279 279 278 277 276 275 275 274 274 274 273 273 272 272
287 287 286 286 285 285 285 284 283 282 282 282 282 282 282 282 282 282 282 281 281 281 281 281 280 280 279 279 279 278 277 276 275 275 274 273 273 272 272 271 271 272
287 286 286 286 285 285 285 284 282 282 282 282 282 282 282 282 282 282 282 281 281 280 280 280 280 279 279 279 278 277 276 275 274 274 273 273 272 271 271 271 271 271
286 286 286 286 285 285 285 283 282 281 282 282 282 282 282 282 281 281 281 281 280 280 279 279 279 279 278 278 277 276 275 274 274 273 273 272 271 271 271 270 270 271
Wind_Speed
8 9 9 9 10 11 11 12 12 13 14 14 15 16 16 17 17 18 18 19 19 19 20 20 20 20 21 21 21 22 22 22 22 22 22 22 22 22 21 21 22 22
7 7 8 9 9 10 11 11 12 13 14 14 15 15 15 16 17 17 18 19 19 20 20 21 22 22 23 23 23 24 24 24 25 25 25 25 25 26 26 26 25 26
6 6 7 7 8 9 10 10 11 12 12 12 12 13 13 13 14 15 15 16 16 17 18 19 19 20 21 22 22 23 24 24 25 26 26 27 28 28 29 30 30 30
3 3 4 5 6 7 8 9 10 11 11 11 11 11 11 11 12 12 13 13 14 15 16 17 18 19 20 21 22 23 23 24 26 26 27 28 29 30 31 32 32 32
1 3 6 8 9 10 11 12 12 13 13 13 13 12 13 13 13 14 15 15 16 17 18 19 20 22 23 24 25 26 27 27 28 29 31 31 31 33 34 34 35 35
5 7 9 11 12 13 14 14 14 15 14 14 14 14 15 16 16 17 18 19 20 21 22 23 24 25 26 27 28 29 30 31 32 33 34 35 35 36 37 38 39 40
8 9 11 13 14 14 15 16 16 16 16 16 17 17 18 19 20 21 22 23 24 24 25 26 27 28 29 30 31 32 33 34 36 37 37 39 39 40 41 41 42 43
9 11 12 13 14 16 17 17 18 18 18 19 19 19 20 20 21 22 23 24 25 26 28 29 30 31 32 34 35 35 37 37 39 40 41 41 42 43 44 44 45 45
10 11 12 14 16 17 19 19 20 20 20 21 21 21 21 22 22 23 24 25 27 28 29 30 31 32 33 35 36 37 38 39 40 40 41 42 42 43 44 44 45 45
10 12 13 16 18 20 21 21 22 22 22 22 22 22 23 23 24 24 25 26 26 27 29 30 31 33 34 36 37 38 39 40 40 41 42 42 43 43 43 43 44 44
11 13 15 18 20 21 22 23 23 23 23 23 23 23 23 23 24 24 25 25 26 28 30 31 33 35 36 37 38 39 40 41 42 42 43 43 43 43 44 44 45 45
12 15 17 20 22 23 24 24 24 24 24 23 23 23 23 23 23 24 25 26 28 30 32 33 34 35 36 36 38 38 39 41 42 42 42 43 43 44 44 45 46 47
14 16 19 21 23 24 25 25 24 24 24 23 23 23 23 23 24 25 26 28 30 31 33 34 34 34 35 36 37 38 39 40 41 41 41 42 43 44 45 46 47 47
15 18 21 23 24 25 26 26 25 24 23 23 23 23 23 23 24 26 27 29 31 32 33 33 33 33 34 35 36 38 39 39 40 41 42 43 43 44 45 45 46 46
17 20 22 24 26 27 27 26 25 23 23 22 22 22 23 24 25 27 29 30 31 32 32 33 33 33 34 35 37 38 39 40 41 42 42 44 44 45 45 45 45 45
19 22 24 25 26 27 27 26 24 23 23 22 22 23 24 25 27 29 30 31 31 32 32 33 33 34 34 36 37 38 39 40 41 42 43 44 45 45 45 44 43 43
21 23 25 26 27 28 27 25 24 23 23 22 23 24 25 26 28 30 30 31 32 32 33 34 34 34 35 36 37 38 39 40 42 43 43 43 43 43 42 42 41 40
22 25 26 27 28 28 26 25 24 24 23 23 23 24 26 27 29 30 30 31 32 33 34 34 35 35 36 37 38 38 39 40 41 42 43 42 41 40 39 39 39 39
24 26 27 28 28 27 26 25 25 24 23 24 25 26 27 28 29 30 30 31 32 33 35 35 36 36 37 38 38 38 39 39 40 41 41 40 39 37 37 36 37 37
26 27 27 29 28 27 26 26 25 24 24 25 26 27 28 29 29 30 31 32 33 34 36 37 37 37 38 38 39 39 39 38 39 39 39 38 37 35 35 35 35 35
27 27 28 29 27 26 27 26 25 25 25 26 27 27 28 29 30 31 31 32 34 35 37 37 37 37 38 38 38 39 38 38 38 38 37 36 35 34 34 34 33 32
27 28 29 28 27 27 27 26 26 26 26 27 27 27 28 29 30 31 32 33 34 36 37 38 38 37 38 38 38 38 38 38 38 37 36 35 34 33 33 32 30 29
28 28 28 27 27 27 27 27 26 26 27 27 27 28 28 29 30 31 32 34 35 37 38 39 39 37 37 38 37 37 37 37 36 36 35 34 33 32 32 29 27 27
28 27 27 27 26 27 27 27 27 27 27 27 27 28 29 29 31 32 33 34 36 37 38 39 39 37 37 37 37 36 35 35 34 34 34 33 33 31 29 27 28 27
27 27 27 26 27 27 27 27 27 27 27 27 27 28 29 30 31 32 34 35 36 37 37 37 38 37 36 36 36 35 33 32 32 32 32 32 31 29 28 28 29 30
27 27 26 27 27 28 27 27 27 27 27 27 27 28 29 31 31 33 35 36 36 37 36 36 36 36 35 35 35 33 31 29 29 29 30 29 29 29 30 30 31 31
Wind_Direction
54 45 34 28 22 18 14 7 2 357 353 349 346 342 340 337 335 332 331 330 330 329 330 330 329 329 329 329 329 328 328 328 327 326 325 324 323 322 320 318 317 317
43 34 25 17 13 9 3 358 352 347 342 338 335 332 329 326 324 323 324 324 323 324 324 324 324 324 324 324 324 323 322 322 321 321 320 320 319 318 317 316 315 314
35 25 16 5 358 351 344 341 336 330 328 325 323 321 318 318 319 320 320 321 322 322 322 322 322 321 321 320 320 319 318 317 316 316 316 316 316 315 315 314 314 313
40 14 355 343 340 336 333 332 328 324 323 322 322 322 321 322 322 320 320 320 321 321 320 320 320 319 318 318 317 317 316 316 316 315 314 314 314 313 313 312 312 311
354 344 344 342 342 342 340 338 335 332 330 328 327 326 326 325 325 324 324 324 324 324 323 322 321 321 321 321 321 320 320 319 319 318 317 316 315 314 314 313 311 310
351 348 347 345 342 341 338 336 335 333 331 329 329 329 328 328 329 329 328 328 328 327 326 326 325 325 325 324 324 323 322 321 320 319 318 317 316 315 314 313 311 310
348 345 343 340 337 336 334 333 332 331 330 330 331 330 329 329 329 329 328 328 327 327 327 327 326 326 326 325 324 323 322 321 320 318 317 316 315 314 312 311 310 309
342 340 337 334 332 332 332 332 330 329 329 329 328 327 326 326 325 325 325 325 325 325 325 326 327 327 326 325 323 322 320 319 317 316 315 313 312 312 311 311 309 308
335 333 330 329 330 331 330 329 327 326 326 324 323 322 321 321 321 322 323 323 323 324 324 325 324 323 322 320 318 317 315 314 313 312 311 311 310 310 310 309 308 307
329 327 327 328 329 329 327 325 324 323 321 320 320 319 319 319 319 320 320 320 320 320 320 320 319 317 316 315 314 313 312 312 312 312 312 312 312 311 311 309 308 307
325 324 325 326 326 325 324 322 321 320 318 318 317 316 316 315 315 315 316 316 317 317 317 316 315 314 313 313 313 313 313 313 313 314 314 314 313 313 312 311 310 308
321 321 322 323 323 323 321 319 318 316 315 314 312 312 311 311 312 313 314 315 315 314 313 312 312 312 313 313 313 313 314 314 314 314 314 313 312 311 311 310 310 308
319 319 320 321 321 320 319 317 315 313 311 310 309 309 309 309 311 312 313 313 312 312 311 311 312 313 314 314 314 314 314 313 313 312 312 311 311 310 310 309 308 307
313 316 317 318 318 318 316 315 313 311 310 308 308 308 308 309 310 310 311 311 311 311 311 312 313 314 315 315 315 314 314 313 313 312 311 311 311 310 309 308 307 307
307 312 314 314 315 315 315 314 312 310 309 308 307 307 307 308 309 310 311 311 311 312 312 313 315 316 317 316 316 315 315 314 314 313 312 311 310 310 309 309 309 309
301 307 309 311 313 314 314 313 311 310 308 307 306 306 307 308 310 311 312 312 313 314 314 315 316 317 318 317 317 317 316 316 315 313 313 312 311 311 310 311 312 312
298 303 307 310 313 314 313 312 311 309 307 306 305 306 308 309 311 312 313 314 315 315 315 316 318 319 319 318 318 318 317 316 315 313 312 311 311 312 313 313 314 313
297 301 306 310 313 313 312 312 311 309 307 305 305 307 309 311 313 314 315 316 316 316 316 317 319 320 319 319 318 318 318 316 314 312 312 311 312 313 314 314 313 313
297 302 307 311 312 312 312 313 311 309 307 306 307 309 311 313 315 316 317 317 317 317 317 318 320 320 319 319 319 319 318 315 313 312 311 311 313 313 313 313 313 315
298 303 308 310 310 311 312 312 311 308 307 307 308 310 312 314 316 317 318 318 318 318 318 319 320 321 320 320 320 319 318 315 312 311 310 311 312 313 312 313 315 318
299 304 308 309 309 311 312 311 309 307 307 307 309 311 314 315 317 317 318 319 318 318 318 319 320 322 321 321 320 319 316 313 311 310 310 310 311 313 313 314 317 321
300 304 306 308 309 310 310 310 308 307 307 307 309 312 314 315 317 318 318 318 318 318 318 319 321 322 321 321 320 318 315 312 311 310 310 310 311 312 312 313 317 321
300 303 306 307 308 309 309 308 307 306 306 307 309 311 314 315 316 317 318 318 318 318 318 319 320 322 321 321 320 317 314 313 312 310 309 309 310 310 311 314 317 320
298 302 305 306 306 307 307 307 306 305 306 306 308 311 312 314 316 317 317 318 317 318 318 318 319 321 321 320 318 316 315 314 312 310 308 308 309 309 311 314 316 318
297 302 304 305 306 306 306 305 305 304 304 305 308 310 312 314 315 316 316 317 317 317 317 318 319 320 321 320 318 316 316 315 312 308 306 306 307 308 313 318 318 318
297 301 303 305 305 305 305 304 303 303 303 305 307 309 311 313 314 315 316 316 316 315 317 318 319 320 321 320 318 317 317 316 310 306 305 307 311 316 318 317 315 315